Tracking 27112 objects as of 27-Mar-2023
HD Live streaming from Space Station
objects crossing your sky now

STARLINK-2139

Track STARLINK-2139 now!
10-day predictions
STARLINK-2139 is classified as:


NORAD ID: 48554
Int'l Code: 2021-041B
Perigee: 553.6 km
Apogee: 555.0 km
Inclination: 53.1 °
Period: 95.6 minutes
Semi major axis: 6925 km
RCS: Unknown
Launch date: May 15, 2021
Source: United States (US)
Launch site: AIR FORCE EASTERN TEST RANGE (AFETR)
Your satellite tracking list
Your tracking list is empty




NASA's NSSDC Master Catalog

Two Line Element Set (TLE):
1 48554U 21041B   23085.88536924  .00038920  00000-0  26162-2 0  9998
2 48554  53.0530 294.5593 0000970  78.5639 281.5459 15.06417016102609
Source of the keplerian elements: AFSPC